Location: Flotzheim
(48.8375°N, 10.8136°E)
Time: 17:23:12
(UTC+00:00)

ATLAS 5 CENTAUR R/B - Pass Details

Date: 23 January 2021
Orbit: 511 x 1147 km, 63.3° (Epoch: 16 February)

Event Time Altitude Azimuth Distance (km) Brightness Sun altitude
Rises 19:29:35 0° 301° (WNW) 2,894 5.9 -34.1°
Reaches altitude 10° 19:32:38 10° 325° (NW) 2,099 4.7 -34.6°
Enters shadow 19:33:39 13° 337° (NNW) 1,941 4.4 -34.8°
